Tracking 30289 objects as of 30-Apr-2025
HD Live streaming from Space Station
objects crossing your sky now

BREEZE-M R/B

Track BREEZE-M R/B now!
10-day predictions


NORAD ID: 28944
Int'l Code: 2006-006B
Perigee: 1,100.1 km
Apogee: 14,772.0 km
Inclination: 50.8 °
Period: 283.8 minutes
Semi major axis: 14307 km
RCS: 13.6373 m2 (large)
Launch date: February 28, 2006
Source: Commonwealth of Independent States (former USSR) (CIS)
Launch site: TYURATAM MISSILE AND SPACE COMPLEX (TTMTR)

Note: This is a ROCKET BODY
Your satellite tracking list
Your tracking list is empty




NASA's NSSDC Master Catalog

Two Line Element Set (TLE):
1 28944U 06006B   25118.64182823 -.00000055  00000-0  00000-0 0  9991
2 28944  50.7614 346.8227 4778018 282.1284  37.8824  5.07313723336865
Source of the keplerian elements: AFSPC